TimeEDT,TemperatureF,Dew PointF,Humidity,Sea Level PressureIn,VisibilityMPH,Wind Direction,Wind SpeedMPH,Gust SpeedMPH,PrecipitationIn,Events,Conditions,WindDirDegrees,DateUTC
12:51 AM,70.0,64.0,81,29.86,10.0,South,4.6,-,N/A,,Overcast,170,2012-09-06 04:51:00
1:51 AM,70.0,64.9,84,29.86,10.0,South,3.5,-,N/A,,Overcast,180,2012-09-06 05:51:00
2:51 AM,69.1,64.9,87,29.86,10.0,South,4.6,-,N/A,,Mostly Cloudy,190,2012-09-06 06:51:00
3:51 AM,68.0,64.9,90,29.86,10.0,Calm,Calm,-,N/A,,Mostly Cloudy,0,2012-09-06 07:51:00
4:51 AM,66.9,64.0,90,29.86,10.0,Calm,Calm,-,N/A,,Mostly Cloudy,0,2012-09-06 08:51:00
5:51 AM,66.0,64.0,93,29.86,10.0,SSW,3.5,-,N/A,,Scattered Clouds,210,2012-09-06 09:51:00
6:51 AM,64.9,64.0,97,29.88,6.0,SW,3.5,-,N/A,Fog,Partly Cloudy,230,2012-09-06 10:51:00
7:51 AM,66.0,64.0,93,29.90,6.0,Calm,Calm,-,N/A,Fog,Clear,0,2012-09-06 11:51:00
8:51 AM,71.1,66.9,87,29.91,7.0,West,5.8,-,N/A,,Mostly Cloudy,270,2012-09-06 12:51:00
9:12 AM,71.6,66.2,83,29.93,9.0,West,4.6,-,N/A,,Partly Cloudy,280,2012-09-06 13:12:00
9:51 AM,73.9,68.0,82,29.92,8.0,NNW,4.6,-,N/A,,Clear,330,2012-09-06 13:51:00
10:51 AM,78.1,68.0,71,29.91,10.0,WNW,3.5,-,N/A,,Scattered Clouds,300,2012-09-06 14:51:00
11:51 AM,79.0,66.0,64,29.91,10.0,SSW,5.8,-,N/A,,Partly Cloudy,200,2012-09-06 15:51:00
12:51 PM,81.0,66.9,62,29.91,10.0,SW,9.2,-,N/A,,Scattered Clouds,220,2012-09-06 16:51:00
1:51 PM,82.0,66.0,58,29.90,10.0,SW,8.1,-,N/A,,Scattered Clouds,230,2012-09-06 17:51:00
2:51 PM,82.9,64.9,54,29.89,10.0,Variable,4.6,-,N/A,,Scattered Clouds,0,2012-09-06 18:51:00
3:51 PM,84.0,64.9,53,29.88,10.0,WSW,9.2,-,N/A,,Mostly Cloudy,250,2012-09-06 19:51:00
4:51 PM,84.0,64.9,53,29.86,10.0,SW,8.1,-,N/A,,Scattered Clouds,230,2012-09-06 20:51:00
5:51 PM,82.9,64.0,53,29.86,10.0,West,8.1,-,N/A,,Mostly Cloudy,260,2012-09-06 21:51:00
6:51 PM,75.0,66.0,73,29.88,10.0,North,9.2,-,0.00,,Mostly Cloudy,10,2012-09-06 22:51:00
7:51 PM,73.0,66.0,79,29.89,10.0,NE,5.8,-,N/A,,Mostly Cloudy,40,2012-09-06 23:51:00
8:27 PM,71.6,64.4,78,29.93,10.0,NW,5.8,-,N/A,Thunderstorm,Thunderstorm,320,2012-09-07 00:27:00
8:51 PM,73.0,64.9,76,29.91,10.0,SSW,8.1,-,N/A,,Scattered Clouds,200,2012-09-07 00:51:00
9:51 PM,68.0,64.0,87,29.92,10.0,Calm,Calm,-,N/A,,Clear,0,2012-09-07 01:51:00
10:51 PM,64.0,62.1,93,29.93,8.0,Calm,Calm,-,N/A,,Clear,0,2012-09-07 02:51:00
11:51 PM,63.0,62.1,97,29.93,8.0,Calm,Calm,-,N/A,Fog,Shallow Fog,0,2012-09-07 03:51:00